Regional Weather Roundup
Issued by NWS

Current Version | Previous Version | Text Only | Print | Product List | Glossary On
Versions: 1 2 3 4 5 6 7 8 9 10 11 12 13 14 15 16 17 18 19 20 21 22 23 24 25 26 27 28 29 30 31 32 33 34 35 36 37 38 39 40 41 42 43 44 45 46 47 48 49 50
000
ASCA42 TJSJ 231011
RWRPR
PUERTO RICO/U.S. VIRGIN ISLANDS HOURLY WEATHER ROUNDUP
NATIONAL WEATHER SERVICE SAN JUAN PR
600 AM AST TUE SEP 23 2014

PRZ001-004-231100-
PUERTO RICO

CITY           SKY/WX    TMP DP  RH WIND       PRES   REMARKS
SAN JUAN LMM   PTCLDY    79  75  89 CALM      29.93R
PONCE          PTCLDY    79  75  89 NE6       29.89R
CEIBA          PTCLDY    79  75  89 S5        29.95R
$$

PRZ006-007-231100-
U.S. VIRGIN ISLANDS

CITY           SKY/WX    TMP DP  RH WIND       PRES   REMARKS
CHARLOTTE AMA  PTCLDY    79  73  83 E7        29.92
CHRISTIANSTED  PTCLDY    77  73  88 N3        29.93
$$

HOURLY WEATHER ROUNDUP FOR THE NEWS MEDIA

CITY           SKY/WX    TMP DP  RH WIND       PRES   REMARKS
MIAMI          MOCLDY    77  74  90 E3        29.97R
ORLANDO        CLOUDY    73  71  93 E6        29.99R
NEW YORK       PTCLDY    51  39  63 N7        30.25R
NEWARK         PTCLDY    51  40  65 NW3       30.25R
CHICAGO        CLEAR     52  43  71 W5        30.29R
HARTFORD       CLEAR     42  40  92 CALM      30.20R
BOSTON         PTCLDY    51  38  60 NW5       30.21R
DALLAS         PTCLDY    66  53  63 SE7       30.16R
PHILADELPHIA   CLEAR     53  40  61 VRB5      30.28R


USA.gov is the U.S. government's official web portal to all federal, state and local government web resources and services.